sat.trackr.live / text

‹ back to catalog

STARLINK-2415

NORAD 47828 · 2021-018AT

PAYLOAD ACTIVE UNKNOWN

§ Identity

Operator
Country
US
Launch date
2021-03-11
Launch site
AFETR
Launch vehicle
Mass (kg)
RCS (m²)

Purposes: comms

External: N2YO · Heavens-Above · Gunter

§ Orbital elements

Epoch: 2026-05-25T01:16:01.698816Z

Period
94.01 min
Inclination
53.1585°
Eccentricity
0.0001404
Mean motion
15.31706797 rev/d
Perigee alt
469.8 km
Apogee alt
471.7 km
Semi-major
6,848.9 km
B*
3.0774e-5
RAAN
260.1315°
Arg perigee
103.4850°
Mean anomaly
256.6308°
Rev number
28,825

§ Raw data

STARLINK-24151 47828U 21018AT  26145.05279744  .00000590  00000+0  30774-4 0  99952 47828  53.1585 260.1315 0001404 103.4850 256.6308 15.31706797288257

JSON: /api/v1/satellites/47828 · /tle

For live sub-satellite position, see the globe view (requires WebGL).

§ Visibility from observer

Set your observer location to see the next 7 days of passes ≥ 10°. The values pass through the URL so the page stays shareable.

No JS? Fill the form by hand. The geolocation button needs JavaScript.